Temp
-2 -3 -3 -3 -3 -4 -4 -5 -6 -6 -6 -7 -7 -8 -8 -8 -8 -10 -10 -10 -10 -11 -10 -9 -10 -10 -10 -10 -10 -10 -10 -10 -10 -9 -9 -9 -9 -9 -8 -7 -6 -5 -4
-3 -3 -3 -3 -3 -4 -4 -5 -6 -6 -6 -7 -8 -8 -8 -8 -8 -9 -9 -10 -10 -10 -11 -10 -10 -10 -10 -10 -10 -10 -10 -10 -10 -10 -9 -9 -9 -9 -7 -6 -6 -5 -5
-3 -3 -3 -3 -3 -4 -4 -5 -5 -6 -6 -7 -7 -7 -8 -8 -8 -9 -9 -10 -10 -10 -11 -11 -10 -10 -10 -10 -9 -9 -9 -10 -10 -10 -9 -9 -8 -8 -7 -6 -6 -5 -5
-3 -3 -3 -3 -4 -4 -4 -4 -5 -6 -6 -6 -7 -7 -8 -8 -8 -9 -9 -10 -10 -11 -11 -11 -10 -10 -10 -10 -9 -9 -9 -9 -10 -9 -9 -9 -9 -7 -7 -6 -5 -5 -5
-3 -3 -3 -4 -4 -4 -4 -4 -5 -5 -6 -6 -7 -7 -7 -8 -8 -10 -9 -10 -11 -11 -11 -11 -11 -10 -10 -10 -9 -9 -9 -9 -9 -9 -9 -9 -8 -8 -7 -7 -6 -5 -5
-4 -3 -4 -4 -4 -4 -4 -4 -5 -5 -5 -6 -7 -7 -8 -8 -9 -11 -10 -10 -11 -11 -11 -11 -11 -11 -10 -10 -9 -9 -9 -9 -9 -9 -8 -8 -8 -8 -7 -7 -7 -6 -5
-3 -4 -4 -4 -4 -4 -4 -4 -5 -5 -6 -6 -7 -7 -8 -9 -9 -11 -11 -11 -11 -11 -11 -11 -10 -11 -10 -9 -9 -9 -8 -8 -8 -8 -8 -8 -8 -8 -8 -8 -7 -6 -5
-4 -4 -4 -4 -4 -4 -4 -4 -5 -5 -6 -7 -7 -8 -8 -8 -9 -11 -11 -11 -11 -10 -10 -10 -10 -10 -10 -9 -9 -8 -8 -8 -8 -7 -7 -7 -8 -8 -8 -8 -7 -6 -5
-4 -4 -4 -4 -4 -5 -4 -5 -5 -5 -6 -7 -7 -8 -8 -8 -8 -11 -11 -11 -11 -10 -9 -9 -9 -9 -9 -9 -8 -8 -7 -7 -7 -7 -7 -7 -7 -8 -8 -8 -7 -5 -5
-4 -4 -5 -5 -5 -5 -5 -5 -5 -6 -6 -6 -7 -7 -7 -8 -8 -9 -9 -10 -9 -9 -9 -9 -9 -9 -8 -8 -8 -7 -7 -7 -7 -6 -6 -7 -7 -8 -8 -7 -7 -6 -5
-4 -5 -5 -5 -5 -5 -5 -5 -5 -6 -6 -6 -7 -7 -7 -7 -8 -9 -8 -9 -10 -9 -9 -9 -9 -8 -8 -8 -7 -7 -7 -7 -7 -7 -6 -7 -7 -7 -7 -6 -6 -5 -5
-5 -5 -5 -5 -5 -5 -6 -6 -6 -6 -6 -6 -6 -7 -7 -7 -8 -8 -8 -9 -9 -9 -9 -9 -8 -8 -8 -7 -7 -7 -7 -7 -7 -7 -7 -7 -6 -6 -6 -6 -5 -5 -4
-5 -5 -5 -5 -5 -6 -6 -6 -6 -6 -6 -7 -7 -7 -7 -7 -7 -8 -8 -9 -9 -9 -9 -9 -8 -8 -7 -7 -7 -7 -7 -7 -7 -7 -7 -6 -6 -6 -6 -5 -5 -5 -4
-5 -5 -5 -5 -6 -6 -6 -6 -6 -6 -7 -7 -8 -8 -8 -8 -8 -8 -8 -8 -8 -9 -8 -8 -8 -8 -8 -7 -7 -7 -7 -7 -7 -7 -7 -6 -6 -6 -5 -5 -4 -4 -3
-5 -5 -5 -6 -6 -6 -6 -6 -6 -7 -7 -8 -8 -8 -8 -8 -9 -9 -9 -8 -9 -9 -9 -8 -8 -8 -7 -7 -7 -7 -7 -7 -7 -6 -6 -6 -6 -6 -5 -5 -5 -4 -3
-5 -5 -5 -5 -6 -6 -6 -6 -7 -7 -7 -8 -8 -8 -8 -9 -8 -8 -8 -8 -8 -8 -8 -8 -8 -8 -8 -8 -8 -7 -7 -7 -7 -6 -6 -6 -5 -5 -5 -5 -4 -3 -2
-5 -5 -5 -5 -6 -6 -6 -6 -6 -7 -7 -7 -8 -8 -8 -8 -8 -8 -8 -7 -7 -7 -8 -9 -9 -8 -8 -8 -8 -8 -8 -7 -7 -7 -6 -6 -5 -5 -5 -5 -4 -4 -3
-5 -5 -5 -5 -6 -6 -6 -6 -6 -6 -6 -7 -7 -7 -7 -8 -8 -7 -7 -7 -7 -7 -8 -9 -9 -9 -8 -8 -8 -8 -8 -7 -7 -7 -6 -6 -5 -5 -5 -5 -4 -4 -3
-5 -5 -5 -5 -6 -6 -6 -6 -6 -6 -7 -7 -7 -7 -7 -7 -7 -7 -7 -7 -8 -8 -9 -9 -9 -9 -8 -8 -8 -8 -8 -8 -7 -7 -7 -6 -6 -6 -5 -5 -5 -4 -3
-5 -5 -5 -5 -6 -6 -6 -6 -6 -6 -7 -7 -7 -7 -7 -7 -7 -7 -7 -8 -8 -8 -9 -8 -8 -9 -9 -8 -8 -8 -8 -8 -7 -7 -7 -7 -6 -6 -6 -6 -5 -5 -4
-5 -5 -5 -5 -6 -6 -6 -6 -6 -6 -6 -7 -7 -7 -8 -8 -8 -8 -8 -8 -8 -8 -9 -8 -8 -8 -8 -8 -8 -8 -8 -8 -8 -7 -7 -7 -7 -6 -6 -6 -6 -5 -5
-6 -6 -6 -6 -6 -6 -6 -6 -6 -6 -6 -7 -7 -7 -7 -8 -8 -8 -8 -8 -8 -8 -8 -8 -8 -8 -8 -8 -8 -8 -8 -8 -7 -7 -7 -7 -7 -6 -6 -6 -6 -6 -6
-6 -6 -6 -6 -6 -6 -6 -6 -6 -6 -6 -7 -7 -7 -7 -7 -8 -8 -8 -8 -8 -8 -8 -8 -8 -8 -8 -7 -7 -7 -7 -7 -7 -7 -7 -7 -7 -6 -6 -6 -6 -6 -6
-6 -6 -6 -6 -6 -6 -6 -6 -6 -6 -6 -6 -7 -7 -7 -7 -7 -7 -8 -8 -8 -8 -8 -7 -7 -7 -7 -7 -7 -7 -7 -7 -7 -7 -7 -7 -7 -7 -6 -6 -6 -6 -7
-6 -7 -7 -6 -6 -6 -6 -6 -6 -6 -6 -6 -7 -7 -7 -7 -7 -7 -7 -7 -8 -8 -8 -8 -7 -7 -7 -7 -6 -6 -6 -6 -6 -6 -7 -7 -7 -7 -7 -7 -7 -7 -7
-7 -7 -7 -7 -7 -6 -6 -6 -6 -6 -6 -7 -7 -7 -7 -7 -7 -7 -7 -7 -7 -8 -7 -7 -7 -7 -7 -7 -6 -6 -6 -6 -6 -6 -6 -6 -7 -7 -7 -7 -7 -7 -7
Height
1560 1557 1555 1552 1549 1545 1542 1539 1536 1532 1527 1524 1520 1515 1510 1505 1499 1494 1489 1485 1480 1476 1472 1468 1464 1461 1458 1455 1452 1450 1447 1444 1441 1438 1436 1432 1429 1427 1427 1428 1427 1426 1420
1560 1557 1555 1552 1549 1545 1541 1538 1534 1530 1525 1522 1518 1513 1508 1502 1497 1492 1487 1483 1478 1473 1469 1464 1460 1457 1454 1451 1448 1445 1442 1440 1437 1434 1431 1428 1425 1423 1423 1422 1422 1420 1416
1560 1558 1555 1552 1548 1545 1541 1537 1533 1529 1523 1520 1515 1510 1505 1499 1495 1490 1486 1482 1476 1471 1465 1460 1456 1453 1450 1447 1444 1441 1438 1435 1433 1430 1426 1424 1421 1420 1419 1419 1419 1416 1414
1560 1558 1555 1552 1549 1545 1541 1536 1532 1527 1522 1518 1513 1508 1504 1499 1493 1489 1485 1479 1473 1468 1462 1457 1453 1450 1447 1443 1440 1437 1433 1430 1428 1426 1424 1422 1418 1418 1416 1417 1417 1415 1413
1561 1559 1556 1553 1549 1546 1541 1537 1532 1527 1522 1517 1512 1508 1503 1497 1492 1487 1483 1477 1470 1464 1460 1455 1451 1447 1444 1440 1436 1433 1429 1427 1424 1423 1423 1422 1416 1415 1414 1414 1416 1416 1417
1562 1559 1556 1553 1550 1546 1541 1537 1532 1528 1522 1517 1511 1507 1502 1496 1491 1486 1481 1475 1469 1463 1457 1452 1448 1444 1440 1436 1432 1429 1425 1422 1420 1419 1421 1421 1418 1414 1414 1416 1416 1415 1416
1562 1559 1557 1554 1550 1546 1542 1538 1533 1528 1522 1517 1512 1507 1502 1495 1489 1485 1478 1473 1467 1462 1456 1450 1446 1442 1437 1432 1429 1425 1421 1419 1416 1414 1414 1417 1420 1416 1413 1414 1412 1413 1412
1562 1560 1557 1554 1551 1548 1544 1539 1534 1529 1523 1518 1513 1508 1502 1495 1489 1483 1476 1471 1466 1460 1454 1449 1444 1440 1435 1430 1425 1422 1419 1416 1413 1410 1409 1411 1411 1414 1414 1416 1416 1415 1415
1563 1561 1558 1556 1553 1549 1545 1540 1535 1530 1525 1521 1515 1509 1503 1496 1488 1482 1475 1469 1464 1459 1453 1448 1443 1438 1433 1428 1423 1419 1416 1413 1410 1407 1407 1407 1408 1410 1412 1414 1416 1417 1418
1564 1562 1560 1557 1553 1550 1546 1542 1537 1533 1528 1523 1517 1511 1504 1497 1490 1483 1476 1470 1464 1458 1453 1447 1442 1437 1432 1427 1422 1418 1414 1411 1408 1406 1404 1404 1405 1406 1409 1412 1413 1416 1416
1565 1563 1561 1558 1555 1551 1548 1544 1539 1535 1530 1525 1519 1513 1506 1500 1492 1485 1478 1472 1465 1459 1453 1447 1442 1437 1432 1427 1422 1418 1414 1411 1409 1407 1405 1404 1403 1405 1408 1412 1415 1416 1417
1566 1564 1562 1559 1556 1553 1549 1545 1541 1536 1532 1526 1521 1515 1509 1503 1496 1488 1481 1474 1468 1461 1455 1449 1444 1439 1434 1428 1423 1419 1415 1411 1410 1409 1408 1407 1408 1409 1409 1410 1413 1414 1418
1567 1566 1563 1560 1557 1554 1550 1546 1542 1538 1533 1528 1522 1517 1510 1504 1498 1491 1484 1477 1470 1463 1458 1453 1448 1442 1436 1431 1426 1421 1417 1414 1412 1412 1412 1411 1411 1411 1412 1415 1417 1420 1421
1568 1567 1564 1562 1559 1556 1552 1548 1544 1540 1535 1530 1525 1519 1513 1507 1500 1493 1486 1480 1473 1467 1462 1457 1450 1445 1439 1435 1429 1425 1422 1419 1416 1415 1415 1415 1415 1415 1416 1416 1418 1420 1421
1569 1568 1565 1563 1560 1557 1553 1550 1546 1543 1538 1534 1529 1523 1517 1510 1505 1499 1492 1484 1477 1472 1465 1460 1454 1448 1443 1439 1434 1430 1427 1424 1421 1420 1419 1419 1419 1419 1418 1420 1420 1421 1422
1571 1569 1566 1564 1561 1558 1556 1553 1549 1545 1542 1538 1533 1528 1523 1517 1512 1505 1498 1490 1485 1478 1470 1463 1458 1453 1449 1445 1441 1437 1433 1430 1427 1426 1424 1423 1424 1424 1424 1424 1424 1425 1427
1571 1570 1568 1565 1563 1560 1557 1554 1551 1548 1544 1540 1535 1531 1526 1520 1515 1509 1503 1496 1489 1481 1474 1469 1464 1460 1456 1452 1448 1444 1440 1437 1434 1433 1432 1431 1430 1430 1430 1429 1430 1431 1432
1572 1571 1569 1566 1564 1561 1558 1555 1552 1548 1545 1542 1538 1533 1529 1523 1518 1513 1507 1501 1492 1486 1480 1475 1471 1467 1463 1458 1455 1451 1447 1444 1442 1439 1437 1437 1437 1436 1436 1437 1437 1437 1437
1573 1572 1570 1568 1566 1563 1560 1557 1554 1551 1547 1544 1540 1536 1532 1527 1521 1516 1511 1503 1497 1492 1487 1482 1478 1473 1469 1465 1461 1458 1455 1451 1448 1447 1444 1443 1443 1442 1441 1441 1442 1444 1445
1574 1573 1571 1569 1567 1565 1562 1559 1556 1553 1549 1546 1542 1537 1533 1529 1524 1519 1514 1509 1504 1499 1495 1490 1484 1480 1476 1472 1468 1465 1461 1458 1455 1453 1453 1450 1447 1447 1447 1448 1447 1449 1449
1575 1574 1572 1571 1569 1567 1564 1561 1558 1555 1552 1548 1544 1540 1536 1532 1528 1523 1519 1515 1510 1505 1501 1496 1492 1487 1483 1479 1475 1471 1468 1465 1463 1460 1459 1459 1459 1456 1456 1456 1456 1455 1456
1576 1575 1574 1572 1570 1568 1566 1563 1560 1557 1554 1551 1547 1544 1540 1536 1532 1528 1524 1520 1516 1511 1507 1503 1498 1493 1489 1485 1481 1478 1475 1472 1469 1466 1465 1463 1462 1463 1462 1462 1462 1463 1464
1577 1576 1575 1573 1571 1569 1567 1564 1562 1559 1556 1553 1550 1546 1543 1539 1535 1532 1528 1525 1520 1517 1513 1509 1505 1500 1496 1492 1488 1485 1482 1479 1476 1474 1472 1471 1469 1468 1469 1469 1468 1469 1469
1578 1577 1576 1574 1572 1570 1568 1566 1563 1561 1558 1555 1552 1549 1545 1542 1539 1535 1532 1528 1525 1521 1518 1514 1510 1506 1502 1498 1495 1491 1488 1485 1483 1481 1479 1478 1477 1476 1475 1475 1476 1476 1476
1579 1578 1576 1575 1573 1571 1569 1567 1564 1562 1559 1557 1554 1551 1548 1545 1542 1538 1535 1532 1529 1526 1522 1519 1515 1512 1508 1505 1501 1498 1495 1492 1489 1486 1484 1483 1482 1482 1481 1480 1479 1479 1480
1579 1578 1577 1575 1574 1572 1570 1568 1565 1563 1561 1558 1556 1553 1550 1547 1544 1541 1538 1535 1532 1529 1526 1523 1520 1517 1514 1510 1507 1504 1501 1498 1495 1493 1491 1489 1487 1486 1486 1486 1487 1487 1487
Wind_Speed
11 11 12 14 16 17 17 17 19 19 20 21 22 23 26 28 27 20 21 20 20 17 15 16 16 16 14 15 12 12 13 13 17 18 16 15 13 13 7 6 6 7 8
11 12 14 15 16 17 18 19 19 20 21 21 23 24 26 28 24 20 23 22 20 18 17 18 17 17 15 13 17 16 14 14 17 18 14 12 11 9 7 5 5 6 7
11 13 14 16 17 19 20 20 20 21 22 22 23 25 27 25 22 19 23 25 21 18 18 18 17 15 14 17 18 17 16 15 15 16 16 13 14 9 6 5 5 6 4
11 13 15 17 19 20 20 21 23 23 23 24 24 24 24 23 20 20 25 24 22 18 17 17 16 14 16 19 16 16 16 16 13 12 12 12 10 5 6 5 3 4 2
12 13 15 17 18 19 20 23 24 25 25 24 23 23 24 24 22 22 26 24 20 18 17 16 16 14 15 14 15 15 16 14 11 9 9 7 7 4 5 6 5 4 4
12 13 15 16 17 19 21 23 25 26 27 26 25 24 25 25 23 24 25 22 19 19 18 17 15 15 17 16 14 14 13 12 11 10 8 5 5 6 6 4 3 4 2
11 12 14 15 17 20 22 23 26 28 29 29 27 27 26 24 25 26 26 20 18 20 18 17 17 16 17 19 17 13 11 10 10 10 11 7 5 5 5 3 1 3 2
10 12 13 15 17 19 22 24 26 29 30 31 29 27 26 25 26 28 27 21 19 20 19 18 18 19 19 18 17 13 9 8 8 9 8 7 7 6 5 3 4 4 4
9 11 13 15 17 20 23 24 26 28 29 28 27 28 29 27 30 30 29 23 21 22 21 19 18 18 19 18 16 14 10 8 8 8 7 7 7 6 4 2 5 6 4
9 11 14 15 17 20 22 24 24 26 26 26 27 29 30 31 32 31 28 26 26 25 22 21 19 19 18 17 15 15 14 11 6 4 3 3 5 5 7 6 7 8 4
9 11 14 16 18 20 21 24 25 25 26 28 28 29 31 33 34 33 29 28 28 25 24 24 22 20 17 16 13 13 12 8 5 3 4 3 4 6 8 7 9 11 5
9 11 13 15 17 20 21 23 25 25 27 29 30 31 32 34 34 33 29 27 26 24 24 22 20 18 17 16 15 14 12 10 9 8 7 8 8 8 6 7 9 8 7
9 11 14 15 17 19 21 23 25 26 27 29 31 32 33 36 36 35 33 29 28 25 21 20 18 18 20 19 18 18 18 16 15 13 11 10 8 8 8 10 11 9 9
9 11 13 14 16 18 20 22 24 26 27 28 30 31 32 35 37 37 35 32 32 27 20 21 23 23 24 23 23 23 20 19 17 15 13 12 11 11 11 12 11 12 13
9 11 12 14 16 18 19 21 22 23 25 26 27 28 31 33 34 32 32 32 32 28 25 25 26 28 29 30 28 27 24 24 23 19 16 15 14 13 12 11 12 13 16
9 10 12 14 16 17 18 19 20 21 22 22 23 24 25 26 28 30 30 32 28 27 30 30 31 31 31 31 31 30 27 24 24 22 19 18 16 16 15 13 12 16 19
9 10 12 13 15 17 18 20 20 18 19 21 22 24 25 26 27 28 29 31 31 33 35 33 32 31 31 30 29 30 30 27 22 23 22 20 19 19 18 17 16 16 18
9 10 12 13 15 17 18 20 21 22 23 22 21 23 24 25 26 28 30 31 35 37 36 35 32 31 30 30 29 28 29 29 27 23 21 20 18 17 16 17 16 16 15
8 10 12 13 15 17 18 19 20 21 22 22 22 22 23 24 27 29 30 35 36 37 37 35 33 31 29 28 28 26 26 27 27 26 23 20 18 17 17 16 15 15 16
7 9 11 13 14 16 17 18 19 20 21 22 23 24 25 26 27 30 31 32 33 35 35 35 34 32 29 28 27 26 26 27 27 27 26 23 20 18 18 17 17 18 18
7 9 10 12 13 15 16 18 19 19 20 22 22 23 24 25 26 27 29 30 32 32 33 34 34 33 31 28 26 26 25 24 25 26 25 23 21 20 19 19 18 18 19
8 9 10 12 13 14 15 16 18 18 19 20 21 21 21 22 23 24 25 26 28 29 30 31 32 32 32 31 27 25 24 23 23 24 24 22 21 19 17 17 17 18 17
8 9 10 11 12 13 14 16 17 18 18 19 20 21 21 21 22 22 23 23 24 25 27 28 29 29 30 30 29 25 24 23 22 22 21 21 20 20 20 19 18 17 17
6 9 11 11 12 13 14 15 16 17 18 19 19 20 21 21 21 21 21 21 21 22 23 25 26 27 28 28 28 27 24 21 20 20 19 19 20 19 18 18 18 17 16
4 7 9 11 12 13 14 15 15 17 18 19 19 20 20 20 20 20 20 20 20 20 21 22 23 24 25 25 25 26 24 22 20 18 18 18 17 17 18 18 17 16 15
3 6 9 11 12 14 14 15 15 16 17 19 19 20 19 19 20 19 19 18 18 19 18 19 20 21 22 23 23 23 23 22 22 20 18 17 16 16 16 17 17 16 15
Wind_Direction
8 8 6 2 360 359 358 356 354 352 349 345 342 340 339 339 343 344 343 346 336 329 323 318 319 317 315 310 308 305 302 298 292 303 306 306 310 310 312 296 297 306 307
10 8 3 1 3 2 1 358 354 352 351 346 343 340 339 342 346 346 354 343 337 330 326 325 322 320 317 313 317 310 307 301 299 300 308 308 314 318 309 296 304 317 315
7 4 1 3 3 3 1 359 357 354 354 348 345 343 344 348 350 352 356 338 333 327 326 326 325 324 323 329 320 317 313 305 300 296 303 313 321 316 292 291 317 324 341
2 4 4 4 5 2 2 2 2 359 358 354 352 349 350 353 353 358 353 335 333 330 331 330 327 322 331 318 315 318 315 309 297 299 307 306 317 321 308 325 339 330 95
3 4 6 7 5 6 9 9 8 6 4 360 357 356 355 356 354 2 347 338 339 338 336 334 330 327 323 321 313 322 312 306 290 286 294 298 317 332 317 330 359 46 127
3 3 8 8 12 13 14 14 13 12 11 7 3 359 358 355 355 0 343 342 341 342 339 338 337 338 342 340 332 323 309 294 274 266 275 289 312 319 316 333 9 103 85
359 6 10 17 18 17 16 16 15 14 14 13 9 6 2 358 0 356 349 346 343 344 346 344 344 342 348 346 335 331 328 310 292 274 270 271 282 290 299 336 286 117 91
6 10 21 21 19 18 17 17 16 15 14 12 12 9 5 2 4 357 356 350 351 350 354 354 350 347 350 340 339 340 331 319 304 288 275 272 273 254 274 279 189 149 112
16 26 23 20 19 19 18 16 16 16 15 13 14 12 10 7 10 2 1 0 356 359 1 1 356 354 351 348 350 350 347 334 313 297 282 261 250 234 236 237 180 146 109
31 21 19 17 19 18 17 16 16 17 16 17 19 17 15 14 13 11 8 6 4 4 7 9 9 3 358 356 356 355 359 0 0 343 338 255 216 208 205 194 169 150 103
25 21 18 17 18 17 15 15 15 15 16 22 22 20 20 18 18 15 14 12 7 7 8 11 12 9 6 7 7 9 6 10 29 38 43 119 140 162 167 164 164 155 116
26 18 15 15 15 15 14 14 16 15 17 19 22 22 22 22 21 20 16 18 13 13 14 15 15 20 22 21 27 29 36 48 68 77 85 99 118 129 144 161 157 148 132
24 14 11 12 12 12 12 14 15 15 17 17 18 19 19 19 19 21 22 21 21 22 24 26 29 33 35 39 42 45 53 60 70 73 80 94 111 118 115 136 152 145 136
13 9 7 12 11 12 12 14 14 15 17 15 15 17 18 19 17 19 19 21 25 25 33 38 41 45 45 46 51 53 54 57 66 71 77 85 94 108 116 128 134 129 135
10 5 10 12 11 12 13 14 15 16 15 13 16 18 17 20 19 18 20 23 27 26 39 42 43 45 45 46 49 51 54 58 66 69 80 90 97 99 103 117 126 134 129
9 8 13 13 12 13 15 18 12 15 16 16 17 21 23 22 21 23 25 30 29 32 41 43 42 42 42 41 44 46 49 54 63 67 75 82 90 94 96 103 121 129 129
13 15 17 16 15 16 16 15 16 24 17 16 19 22 23 22 23 26 28 32 33 38 42 42 41 41 41 42 44 45 47 50 62 70 72 81 86 92 97 98 102 111 119
21 20 18 17 17 17 16 15 14 14 18 21 20 22 24 22 24 25 30 34 37 38 38 38 40 41 41 42 43 44 46 48 54 65 69 75 84 86 91 93 101 107 113
19 18 18 17 17 17 15 15 15 15 16 18 21 24 27 26 28 28 28 34 35 35 36 36 37 38 42 44 44 46 48 48 50 55 64 65 75 83 85 89 93 109 117
24 21 18 17 17 16 15 15 15 16 16 16 19 20 23 24 26 29 30 31 34 34 34 34 36 38 38 44 46 46 49 51 52 54 57 61 64 77 85 94 98 106 111
27 20 19 18 13 13 14 14 14 15 16 16 17 19 19 22 23 26 27 29 30 32 32 32 33 36 39 41 45 47 48 50 52 53 54 59 63 68 78 86 95 101 105
27 23 17 13 11 10 12 13 13 14 16 16 16 18 19 21 24 23 27 27 31 29 30 31 32 33 34 38 43 46 49 51 53 55 54 55 57 59 69 80 89 98 105
23 18 10 7 11 13 13 12 11 12 13 15 14 15 18 20 22 23 22 25 26 31 30 30 32 34 35 36 39 43 45 49 53 56 59 59 61 65 71 76 79 87 98
17 17 13 12 12 10 9 9 9 11 12 13 15 14 14 18 19 21 21 22 25 25 29 31 31 32 34 35 38 40 43 46 51 57 61 64 66 67 69 75 79 83 88
8 2 4 6 6 3 2 4 6 8 9 11 13 13 14 14 16 17 20 20 21 24 25 28 31 32 34 36 37 40 41 45 50 54 59 62 67 71 72 75 78 83 86
343 337 340 346 351 354 357 359 2 4 6 7 8 10 12 14 15 16 16 19 20 20 22 24 28 31 33 35 38 38 41 45 49 54 58 60 63 70 76 78 81 86 87